DW7229 Weather Reports


time (UTC)temp
F
wind
direction
speed
knots
gust
knots
rain 1hr
in
rain 24hr
in
rain mn
in
humidity
%
barometer
mb
20260505023525 60 0.0 0.0 0.00 0.00 0.00 45 1009.2
20260505022528 61 168 0.0 2.6 0.00 0.00 0.00 45 1009.3
20260505021532 61 172 0.9 4.3 0.00 0.00 0.00 44 1009.2
20260505020517 62 191 0.9 5.2 0.00 0.00 0.00 44 1009.1
20260505015520 62 173 0.9 4.3 0.00 0.00 0.00 43 1009.2
20260505014523 62 189 0.9 4.3 0.00 0.00 0.00 42 1009.0
20260505013527 63 324 0.9 4.3 0.00 0.00 0.00 42 1008.6
20260505012551 63 225 0.9 3.5 0.00 0.00 0.00 41 1008.5
20260505011515 64 178 0.9 4.3 0.00 0.00 0.00 40 1008.3
20260505010518 64 253 2.6 8.7 0.00 0.00 0.00 40 1008.1
20260505005522 64 198 3.5 8.7 0.00 0.00 0.00 39 1007.9
20260505004525 65 207 3.5 7.8 0.00 0.00 0.00 38 1007.6
20260505003522 66 216 1.7 7.0 0.00 0.00 0.00 37 1007.2
20260505002520 66 213 2.6 6.1 0.00 0.00 0.00 36 1006.8
20260505001517 66 259 0.9 3.5 0.00 0.00 0.00 34 1006.7
20260505000520 67 225 0.9 4.3 0.00 0.00 0.00 33 1006.5
20260504235524 67 248 0.0 1.7 0.00 0.00 0.00 33 1006.4
20260504234527 68 270 0.0 1.7 0.00 0.00 0.00 31 1006.2
20260504233530 69 225 0.0 1.7 0.00 0.00 0.00 30 1006.2
20260504232515 69 248 0.0 2.6 0.00 0.00 0.00 30 1006.0
20260504231518 70 219 1.7 3.5 0.00 0.00 0.00 29 1005.9
20260504230522 71 227 0.9 3.5 0.00 0.00 0.00 28 1005.8
20260504225525 72 180 0.9 3.5 0.00 0.00 0.00 28 1005.7
20260504224528 73 225 0.0 2.6 0.00 0.00 0.00 27 1005.5
20260504223532 73 285 1.7 5.2 0.00 0.00 0.00 26 1005.6
20260504222517 74 212 0.9 5.2 0.00 0.00 0.00 26 1005.5
20260504221520 73 272 2.6 4.3 0.00 0.00 0.00 26 1005.6
20260504220523 74 259 3.5 7.0 0.00 0.00 0.00 25 1005.6
20260504215547 74 261 4.3 10.4 0.00 0.00 0.00 24 1005.5
20260504214530 75 210 3.5 5.2 0.00 0.00 0.00 24 1005.5
20260504213516 75 240 3.5 7.8 0.00 0.00 0.00 23 1005.5
20260504212519 75 232 4.3 9.6 0.00 0.00 0.00 24 1005.5
20260504211542 75 233 3.5 7.0 0.00 0.00 0.00 24 1005.5
20260504210526 74 252 0.9 2.6 0.00 0.00 0.00 25 1005.5
20260504205523 76 180 2.6 5.2 0.00 0.00 0.00 24 1005.3
20260504204520 75 241 3.5 7.8 0.00 0.00 0.00 24 1005.5
20260504203517 75 243 4.3 11.3 0.00 0.00 0.00 23 1005.4
20260504202520 76 226 4.3 9.6 0.00 0.00 0.00 23 1005.4
20260504201524 75 219 4.3 7.8 0.00 0.00 0.00 23 1005.5
20260504200527 75 252 5.2 7.0 0.00 0.00 0.00 24 1005.6
20260504195531 75 257 4.3 10.4 0.00 0.00 0.00 23 1005.6
20260504194516 75 262 5.2 10.4 0.00 0.00 0.00 23 1005.5
20260504193519 75 262 6.1 11.3 0.00 0.00 0.00 23 1005.6
20260504192522 74 308 4.3 7.0 0.00 0.00 0.00 23 1005.6
20260504191525 73 223 6.1 11.3 0.00 0.00 0.00 24 1005.6
20260504190529 74 207 5.2 8.7 0.00 0.00 0.00 23 1005.6
20260504185532 74 249 4.3 11.3 0.00 0.00 0.00 23 1005.8
20260504184517 73 206 4.3 7.8 0.00 0.00 0.00 23 1006.0
20260504183520 73 281 6.1 10.4 0.00 0.00 0.00 24 1006.1
20260504182524 72 193 3.5 6.1 0.00 0.00 0.00 24 1006.3
20260504181527 72 228 7.0 10.4 0.00 0.00 0.00 24 1006.3
20260504180531 72 289 6.1 8.7 0.00 0.00 0.00 24 1006.2
20260504175516 72 228 5.2 10.4 0.00 0.00 0.00 25 1006.2
20260504174519 72 256 6.1 10.4 0.00 0.00 0.00 25 1006.3
20260504173522 71 229 6.1 9.6 0.00 0.00 0.00 25 1006.7
20260504172526 71 241 6.1 10.4 0.00 0.00 0.00 25 1006.5
20260504171543 70 279 4.3 9.6 0.00 0.00 0.00 26 1006.6
20260504170520 70 298 8.7 16.5 0.00 0.00 0.00 25 1006.7
20260504150517 66 180 0.0 0.9 0.00 0.00 0.00 32 1007.7
20260504140519 63 214 1.7 6.1 0.00 0.00 0.00 36 1008.4
20260504130515 57 231 2.6 7.0 0.00 0.00 0.00 42 1009.0
20260504110524 47 0.0 0.0 0.00 0.00 0.00 53 1009.7
20260504100545 44 0.0 0.0 0.00 0.00 0.00 56 1009.5
20260504081525 44 0.0 0.0 0.00 0.00 0.00 56 1009.4
20260504080528 43 0.0 0.0 0.00 0.00 0.00 55 1009.4
20260504050516 36 0.0 0.0 0.00 0.00 0.00 71 1009.4
20260504045519 36 0.0 0.0 0.00 0.00 0.00 71 1009.4
20260504044522 35 0.0 0.0 0.00 0.00 0.00 71 1009.5
20260504043525 36 0.0 0.0 0.00 0.00 0.00 71 1009.4
20260504042529 36 0.0 0.0 0.00 0.00 0.00 71 1009.4
20260504041532 36 0.0 0.0 0.00 0.00 0.00 71 1009.4
20260504040537 36 0.0 0.0 0.00 0.00 0.00 71 1009.3
20260504035520 35 0.0 0.0 0.00 0.00 0.00 70 1009.2
20260504034524 35 0.0 0.0 0.00 0.00 0.00 70 1009.2
20260504033527 36 0.0 0.0 0.00 0.00 0.00 69 1009.2
20260504032530 36 0.0 0.0 0.00 0.00 0.00 69 1009.2
20260504031516 36 0.0 0.0 0.00 0.00 0.00 69 1009.2
20260504030519 36 0.0 0.0 0.00 0.00 0.00 68 1009.2
20260504025522 36 0.0 0.0 0.00 0.00 0.00 66 1009.2
20260504024546 37 0.0 0.0 0.00 0.00 0.00 64 1009.0